OPS-SAT

Last updated on Sat Jan 18 2020 00:02:03 GMT+0000 (Coordinated Universal Time)

1 44878U 19092F 20017.09618412 -.00000066 00000-0 00000-0 0 9996 2 44878 97.4647 203.0079 0014820 159.7161 200.4777 15.15205790 4462
UTC large
Height (km)
Speed (km/s)
/
Latitude / Longitude
Inclination (degrees)
Orbital Period (minutes)
Azimuth
Elevation
Range (km)
Doppler Factor

Next 0 passes for location: London (51.5072 / 0.1276)

Sorry there are no passes over London.